Regional Weather Roundup
Issued by NWS

Home | Current Version | Previous Version | Text Only | Print | Product List | Glossary On
Versions: 1 2 3 4 5 6 7 8 9 10 11 12 13 14 15 16 17 18 19 20 21 22 23 24 25 26 27 28 29 30 31 32 33 34 35 36 37 38 39 40 41 42 43 44 45 46 47 48 49 50
148
ASUS44 KLIX 240410
RWRLA
LOUISIANA WEATHER ROUNDUP
NATIONAL WEATHER SERVICE NEW ORLEANS LA
1100 PM CDT WED JUL 23 2014

NOTE: "FAIR" INDICATES FEW OR NO CLOUDS BELOW 12,000 FEET WITH NO
      SIGNIFICANT WEATHER AND/OR OBSTRUCTIONS TO VISIBILITY.
      SKY/WX - SKY CONDITION AND SIGNIFICANT WEATHER.
      TMP - AIR TEMPERATURE.    DP   - DEWPOINT TEMPERATURE.
      RH  - RELATIVE HUMIDITY.  PRES - PRESSURE.
      HX  - HEAT INDEX.         WCI  - WIND CHILL INDEX.

*  THESE STATIONS ARE NOT NWS OR FAA STATIONS AND ARE NOT UNDER
   NWS QUALITY CONTROL.

LAZ040-048-061>063-065-066-069-240500-
SOUTHEAST LOUISIANA

CITY           SKY/WX    TMP DP  RH WIND       PRES   REMARKS
N.O. AUDUBON     N/A     80  73  77 MISG        N/A
N.O. INTL ARPT MOCLDY    78  72  81 CALM      30.02R
N.O. LAKEFRONT PTCLDY    79  72  79 SE6       30.02S
N.O. DOWNTOWN* FAIR      81  70  69 S3        30.03R
SLIDELL        CLEAR     75  71  87 CALM      30.02R
BATON ROUGE    CLEAR     77  73  87 NE3       30.01S
BOOTHVILLE       N/A     79  73  82 SW5       30.03R
BELLE CHASSE   MOCLDY    75  72  90 CALM      30.01F
BOGALUSA*      FAIR      77  73  86 S3        30.02F
GALLIANO*      NOT AVBL
NEW ROADS*     FAIR      76  75  96 CALM      30.01S FOG
GONZALES*      FAIR      75  75 100 CALM      30.01S
HAMMOND*       CLEAR     77  72  83 CALM      30.03S
HOUMA*         PTCLDY    74  71  88 CALM      30.02S
PORT FOURCHON* PTCLDY    81  73  78 CALM      30.03F

$$

LAZ041-044-053-054-240500-
SOUTHWEST LOUISIANA

CITY           SKY/WX    TMP DP  RH WIND       PRES   REMARKS
LAKE CHARLES   MOCLDY    79  75  87 N5        30.02R
LAFAYETTE      CLEAR     78  73  84 CALM      30.01S
PATTERSON      CLEAR     75  73  94 CALM      30.05S
SALT POINT       N/A     79  75  87 CALM      30.01R
NEW IBERIA     CLEAR     78  75  90 SE3       30.02R
CHENAULT AIRPK MOCLDY    80  71  74 N15       30.03R

$$

LAZ027-028-240500-
CENTRAL LOUISIANA

CITY           SKY/WX    TMP DP  RH WIND       PRES   REMARKS
FORT POLK      TSTM      73  71  93 E6        30.06R
ALEXANDRIA INT CLOUDY    76  72  87 NE3       30.01R
ALEXANDRIA     CLOUDY    75  71  87 CALM      30.02S

$$

LAZ001-002-240500-
NORTHWEST LOUISIANA

CITY           SKY/WX    TMP DP  RH WIND       PRES   REMARKS
SHREVEPORT     CLOUDY    71  68  90 CALM      30.00F
BARKSDALE AFB  CLOUDY    71  69  91 SE2       30.00F
DTN SHREVEPORT NOT AVBL

$$

LAZ014-016-240500-
NORTHEAST LOUISIANA

CITY           SKY/WX    TMP DP  RH WIND       PRES   REMARKS
MONROE         CLOUDY    75  68  78 N3        30.00F
TALLULAH       CLOUDY    77  70  79 W10G18    29.99S

$$




USA.gov is the U.S. government's official web portal to all federal, state and local government web resources and services.